Weather Roundup
Issued by NWS Springfield, MO

Home | Current Version | Previous Version | Text Only | Print | Product List | Glossary On
Versions: 1 2 3 4 5 6 7 8 9 10 11 12 13 14 15 16 17 18 19 20 21 22 23 24 25 26 27 28 29 30 31 32 33 34 35 36 37 38 39 40 41 42 43 44 45 46 47 48 49 50
000
NZUS99 KSGF 292207
HRRSGF

HOURLY WEATHER
NATIONAL WEATHER SERVICE SPRINGFIELD MO
500 PM CDT FRI AUG 29 2014

......SGF CWA......

CITY           SKY/WX    TMP DP  RH WIND       PRES   REMARKS
SPRINGFIELD    CLOUDY    85  62  46 W12       29.88S
JOPLIN         PTSUNNY   88  62  41 SW12G20   29.87S
WEST PLAINS    LGT RAIN  73  69  87 S6        29.95R
ROLLA          CLOUDY    77  69  76 SW3       29.87S
OSAGE BEACH    PTSUNNY   79  70  73 S6        29.86F
BRANSON        LGT RAIN  79  68  69 S9        29.92R

......SURROUNDING SGF CWA......

CITY           SKY/WX    TMP DP  RH WIND       PRES   REMARKS
CHANUTE        PTSUNNY   88  62  41 SW12G22   29.83F
PARSONS        PTSUNNY   87  63  44 S9        29.85S
COFFEYVILLE    PTSUNNY   88  63  43 SW9       29.83F
EMPORIA        MOSUNNY   89  62  40 SW13G24   29.80F
GROVE OK       PTSUNNY   88  66  48 SE9       29.88S HX  90
ROGERS AR      CLOUDY    80  66  62 S12       29.92S
SILOAM SPRINGS   N/A     84  64  51 S12       29.91F
HARRISON AR    CLOUDY    73  71  93 S9        29.93S
NEAR YELLVILLE CLOUDY    73  66  78 S6        29.93R

......KANSAS AND MISSOURI......

CITY           SKY/WX    TMP DP  RH WIND       PRES   REMARKS
KANSAS CTY INT MOSUNNY   82  68  62 S13       29.81F
DOWNTOWN KC    PTSUNNY   85  67  54 S13       29.81S
COLUMBIA       PTSUNNY   79  73  82 S12       29.86S
SEDALIA        MOSUNNY   82  67  60 SW9G18    29.85F
ST JOSEPH      MOSUNNY   80  70  71 S7        29.79F
ST LOUIS       MOSUNNY   91  64  40 SE17G25   29.85S HX  92
SPIRIT OF STL  PTSUNNY   89  66  46 S9        29.83S HX  91
KIRKSVILLE     CLOUDY    77  72  84 SW6       29.82F
WICHITA        PTSUNNY   85  65  51 SW15G22   29.83S
TOPEKA         MOSUNNY   89  66  46 S13       29.77F HX  91
OLATHE         MOSUNNY   83  67  58 S10       29.82S

......TENNESSEE......

CITY           SKY/WX    TMP DP  RH WIND       PRES   REMARKS
MEMPHIS        MOSUNNY   90  67  46 S8        29.92F HX  93
NASHVILLE      PTSUNNY   91  59  33 S12       29.99F HX  90

......ARKANSAS.......

CITY           SKY/WX    TMP DP  RH WIND       PRES   REMARKS
FAYETTEVILLE   CLOUDY    76  69  79 S10       29.92F
FT SMITH       CLOUDY    78  72  81 SE6       29.89F
LITTLE ROCK    PTSUNNY   88  72  58 S13G22    29.90R HX  94

......OKLAHOMA.......

CITY           SKY/WX    TMP DP  RH WIND       PRES   REMARKS
TULSA          PTSUNNY   91  63  39 S12G20    29.82F HX  92
PONCA CITY     PTSUNNY   82  66  58 S6        29.84F
MCALESTER      MOSUNNY   87  70  56 S8        29.87F HX  92
OKLAHOMA CITY  PTSUNNY   84  66  54 SW16G24   29.88S

......IOWA............

CITY           SKY/WX    TMP DP  RH WIND       PRES   REMARKS
DES MOINES     LGT RAIN  74  69  85 S8        29.80R
QUAD CITIES    MOSUNNY   86  72  62 SE8       29.82S HX  92

......ILLINOIS........

CITY           SKY/WX    TMP DP  RH WIND       PRES   REMARKS
QUINCY         PTSUNNY   84  68  58 S7        29.82S
CHICAGO        MOSUNNY   86  69  56 S14       29.88F HX  90



USA.gov is the U.S. government's official web portal to all federal, state and local government web resources and services.